contact:dominique.lefevre@mio.osupytheas.fr, maurice.libes@osupytheas.fr, didier.mallarino@osupytheas.fr
Project:EMSO http://www.emso-fr.org/EMSO-France
Depth: 2436.0 m
Title:EMSO Ligure Ouest : Data MII capteur MICROCAT
DateTime_Computer,Latitude,Longitude,Temperature,Conductivity,Pressure,DateTime_Instrument
DateTime_Computer,Latitude,Longitude,degC,S m-1,dbar,DateTime_Instrument
2020-06-16T00:00:11Z,42.805,6.029,13.3030,4.60046,2470.087,2020-6-16T02:00:56Z
2020-06-16T00:03:15Z,42.805,6.029,13.3031,4.60047,2470.124,2020-6-16T02:03:59Z
2020-06-16T00:06:18Z,42.805,6.029,13.3031,4.60029,2470.133,2020-6-16T02:07:02Z
2020-06-16T00:09:21Z,42.805,6.029,13.3027,4.60057,2470.11,2020-6-16T02:10:05Z
2020-06-16T00:12:24Z,42.805,6.029,13.3044,4.60025,2470.147,2020-6-16T02:13:09Z
2020-06-16T00:15:28Z,42.805,6.029,13.3040,4.60050,2470.147,2020-6-16T02:16:12Z
2020-06-16T00:18:31Z,42.805,6.029,13.3042,4.60002,2470.147,2020-6-16T02:19:15Z
2020-06-16T00:21:34Z,42.805,6.029,13.3080,4.59997,2470.147,2020-6-16T02:22:19Z
2020-06-16T00:24:37Z,42.805,6.029,13.3031,4.60006,2470.147,2020-6-16T02:25:22Z
2020-06-16T00:27:41Z,42.805,6.029,13.3045,4.60007,2470.133,2020-6-16T02:28:25Z
2020-06-16T00:30:44Z,42.805,6.029,13.3034,4.60005,2470.133,2020-6-16T02:31:28Z
2020-06-16T00:33:47Z,42.805,6.029,13.3028,4.60014,2470.124,2020-6-16T02:34:32Z
2020-06-16T00:36:50Z,42.805,6.029,13.3026,4.60034,2470.147,2020-6-16T02:37:35Z
2020-06-16T00:39:54Z,42.805,6.029,13.3027,4.59996,2470.133,2020-6-16T02:40:38Z
2020-06-16T00:42:57Z,42.805,6.029,13.3034,4.60003,2470.133,2020-6-16T02:43:42Z
2020-06-16T00:46:00Z,42.805,6.029,13.3046,4.60008,2470.133,2020-6-16T02:46:45Z
2020-06-16T00:49:04Z,42.805,6.029,13.3040,4.60023,2470.133,2020-6-16T02:49:48Z
2020-06-16T00:52:07Z,42.805,6.029,13.3046,4.60026,2470.171,2020-6-16T02:52:51Z
2020-06-16T00:55:10Z,42.805,6.029,13.3036,4.60026,2470.147,2020-6-16T02:55:54Z
2020-06-16T00:58:13Z,42.805,6.029,13.3024,4.60016,2470.147,2020-6-16T02:58:58Z
2020-06-16T01:01:17Z,42.805,6.029,13.3016,4.60011,2470.171,2020-6-16T03:02:01Z
2020-06-16T01:04:20Z,42.805,6.029,13.3014,4.59995,2470.133,2020-6-16T03:05:04Z
2020-06-16T01:07:23Z,42.805,6.029,13.3054,4.60039,2470.147,2020-6-16T03:08:08Z
2020-06-16T01:10:26Z,42.805,6.029,13.3024,4.60011,2470.133,2020-6-16T03:11:11Z
2020-06-16T01:13:30Z,42.805,6.029,13.3023,4.60030,2470.133,2020-6-16T03:14:14Z
2020-06-16T01:16:33Z,42.805,6.029,13.3000,4.60035,2470.147,2020-6-16T03:17:17Z
2020-06-16T01:19:36Z,42.805,6.029,13.2996,4.60030,2470.147,2020-6-16T03:20:21Z
2020-06-16T01:22:40Z,42.805,6.029,13.3015,4.60004,2470.18,2020-6-16T03:23:24Z
2020-06-16T01:25:43Z,42.805,6.029,13.2993,4.60017,2470.156,2020-6-16T03:26:27Z
2020-06-16T01:28:46Z,42.805,6.029,13.2989,4.60033,2470.156,2020-6-16T03:29:31Z
2020-06-16T01:31:49Z,42.805,6.029,13.2996,4.60014,2470.171,2020-6-16T03:32:34Z
2020-06-16T01:34:53Z,42.805,6.029,13.3031,4.60029,2470.171,2020-6-16T03:35:37Z
2020-06-16T01:37:56Z,42.805,6.029,13.3019,4.60036,2470.156,2020-6-16T03:38:40Z
2020-06-16T01:40:59Z,42.805,6.029,13.3016,4.60044,2470.194,2020-6-16T03:41:43Z
2020-06-16T01:44:02Z,42.805,6.029,13.3021,4.60046,2470.171,2020-6-16T03:44:47Z
2020-06-16T01:47:06Z,42.805,6.029,13.3000,4.60019,2470.203,2020-6-16T03:47:50Z
2020-06-16T01:50:09Z,42.805,6.029,13.3009,4.60019,2470.18,2020-6-16T03:50:54Z
2020-06-16T01:53:12Z,42.805,6.029,13.3011,4.60013,2470.194,2020-6-16T03:53:57Z
2020-06-16T01:56:16Z,42.805,6.029,13.3008,4.60023,2470.18,2020-6-16T03:57:00Z
2020-06-16T01:59:19Z,42.805,6.029,13.3027,4.60054,2470.171,2020-6-16T04:00:03Z
2020-06-16T02:02:22Z,42.805,6.029,13.3019,4.60033,2470.171,2020-6-16T04:03:07Z
2020-06-16T02:05:25Z,42.805,6.029,13.3005,4.60046,2470.194,2020-6-16T04:06:10Z
2020-06-16T02:08:29Z,42.805,6.029,13.3041,4.60014,2470.171,2020-6-16T04:09:13Z
2020-06-16T02:11:32Z,42.805,6.029,13.3059,4.59998,2470.194,2020-6-16T04:12:17Z
2020-06-16T02:14:35Z,42.805,6.029,13.3034,4.60006,2470.18,2020-6-16T04:15:20Z
2020-06-16T02:17:39Z,42.805,6.029,13.3020,4.60038,2470.194,2020-6-16T04:18:23Z
2020-06-16T02:20:42Z,42.805,6.029,13.3022,4.60019,2470.194,2020-6-16T04:21:26Z
2020-06-16T02:23:45Z,42.805,6.029,13.3016,4.60023,2470.217,2020-6-16T04:24:30Z
2020-06-16T02:26:48Z,42.805,6.029,13.3013,4.60023,2470.194,2020-6-16T04:27:33Z
2020-06-16T02:29:51Z,42.805,6.029,13.3006,4.60016,2470.203,2020-6-16T04:30:36Z
2020-06-16T02:32:55Z,42.805,6.029,13.3033,4.59994,2470.203,2020-6-16T04:33:39Z
2020-06-16T02:35:58Z,42.805,6.029,13.3020,4.59999,2470.171,2020-6-16T04:36:42Z
2020-06-16T02:39:01Z,42.805,6.029,13.3017,4.60034,2470.194,2020-6-16T04:39:46Z
2020-06-16T02:42:04Z,42.805,6.029,13.3039,4.60006,2470.203,2020-6-16T04:42:49Z
2020-06-16T02:45:08Z,42.805,6.029,13.3036,4.59996,2470.194,2020-6-16T04:45:52Z
2020-06-16T02:48:11Z,42.805,6.029,13.3024,4.59999,2470.217,2020-6-16T04:48:55Z
2020-06-16T02:51:14Z,42.805,6.029,13.3014,4.60035,2470.194,2020-6-16T04:51:59Z
2020-06-16T02:54:17Z,42.805,6.029,13.3015,4.60022,2470.194,2020-6-16T04:55:02Z
2020-06-16T02:57:21Z,42.805,6.029,13.3011,4.60014,2470.194,2020-6-16T04:58:05Z
2020-06-16T03:00:24Z,42.805,6.029,13.3033,4.60042,2470.217,2020-6-16T05:01:08Z
2020-06-16T03:03:27Z,42.805,6.029,13.3008,4.60011,2470.194,2020-6-16T05:04:12Z
2020-06-16T03:06:30Z,42.805,6.029,13.3019,4.60015,2470.194,2020-6-16T05:07:15Z
2020-06-16T03:09:34Z,42.805,6.029,13.3035,4.60005,2470.194,2020-6-16T05:10:18Z
2020-06-16T03:12:37Z,42.805,6.029,13.3037,4.60001,2470.217,2020-6-16T05:13:21Z
2020-06-16T03:15:40Z,42.805,6.029,13.3004,4.60018,2470.203,2020-6-16T05:16:25Z
2020-06-16T03:18:43Z,42.805,6.029,13.3015,4.60022,2470.203,2020-6-16T05:19:28Z
2020-06-16T03:21:47Z,42.805,6.029,13.3048,4.60007,2470.227,2020-6-16T05:22:31Z
2020-06-16T03:24:50Z,42.805,6.029,13.3036,4.60011,2470.217,2020-6-16T05:25:34Z
2020-06-16T03:27:53Z,42.805,6.029,13.3028,4.60014,2470.217,2020-6-16T05:28:38Z
2020-06-16T03:30:56Z,42.805,6.029,13.3028,4.60010,2470.194,2020-6-16T05:31:41Z
2020-06-16T03:34:00Z,42.805,6.029,13.3061,4.60022,2470.217,2020-6-16T05:34:44Z
2020-06-16T03:37:03Z,42.805,6.029,13.3055,4.60015,2470.217,2020-6-16T05:37:47Z
2020-06-16T03:40:06Z,42.805,6.029,13.3026,4.60003,2470.227,2020-6-16T05:40:50Z
2020-06-16T03:43:09Z,42.805,6.029,13.3027,4.60011,2470.203,2020-6-16T05:43:54Z
2020-06-16T03:46:13Z,42.805,6.029,13.3011,4.60014,2470.203,2020-6-16T05:46:57Z
2020-06-16T03:49:16Z,42.805,6.029,13.3039,4.60013,2470.217,2020-6-16T05:50:00Z
2020-06-16T03:52:19Z,42.805,6.029,13.3024,4.60002,2470.203,2020-6-16T05:53:03Z
2020-06-16T03:55:22Z,42.805,6.029,13.3043,4.60020,2470.203,2020-6-16T05:56:07Z
2020-06-16T03:58:26Z,42.805,6.029,13.3051,4.60031,2470.18,2020-6-16T05:59:10Z
2020-06-16T04:01:29Z,42.805,6.029,13.3034,4.60010,2470.194,2020-6-16T06:02:13Z
2020-06-16T04:04:32Z,42.805,6.029,13.3015,4.60016,2470.18,2020-6-16T06:05:16Z
2020-06-16T04:07:36Z,42.805,6.029,13.3023,4.60008,2470.18,2020-6-16T06:08:20Z
2020-06-16T04:10:39Z,42.805,6.029,13.3061,4.60017,2470.203,2020-6-16T06:11:23Z
2020-06-16T04:13:42Z,42.805,6.029,13.3034,4.60003,2470.217,2020-6-16T06:14:27Z
2020-06-16T04:16:45Z,42.805,6.029,13.3041,4.60008,2470.227,2020-6-16T06:17:30Z
2020-06-16T04:19:49Z,42.805,6.029,13.3036,4.60011,2470.203,2020-6-16T06:20:33Z
2020-06-16T04:22:52Z,42.805,6.029,13.3038,4.60026,2470.217,2020-6-16T06:23:36Z
2020-06-16T04:25:55Z,42.805,6.029,13.3031,4.60023,2470.203,2020-6-16T06:26:40Z
2020-06-16T04:28:58Z,42.805,6.029,13.3021,4.60007,2470.194,2020-6-16T06:29:43Z
2020-06-16T04:32:01Z,42.805,6.029,13.3029,4.60041,2470.217,2020-6-16T06:32:46Z
2020-06-16T04:35:05Z,42.805,6.029,13.3011,4.60010,2470.194,2020-6-16T06:35:49Z
2020-06-16T04:38:08Z,42.805,6.029,13.3021,4.60006,2470.203,2020-6-16T06:38:52Z
2020-06-16T04:41:11Z,42.805,6.029,13.3065,4.60001,2470.194,2020-6-16T06:41:56Z
2020-06-16T04:44:14Z,42.805,6.029,13.3048,4.60013,2470.194,2020-6-16T06:44:59Z
2020-06-16T04:47:18Z,42.805,6.029,13.3018,4.60041,2470.18,2020-6-16T06:48:02Z
2020-06-16T04:50:21Z,42.805,6.029,13.3045,4.60006,2470.171,2020-6-16T06:51:05Z
2020-06-16T04:53:24Z,42.805,6.029,13.3019,4.60007,2470.203,2020-6-16T06:54:08Z
2020-06-16T04:56:27Z,42.805,6.029,13.3013,4.60008,2470.217,2020-6-16T06:57:12Z
2020-06-16T04:59:30Z,42.805,6.029,13.3039,4.60014,2470.203,2020-6-16T07:00:15Z
2020-06-16T05:02:34Z,42.805,6.029,13.3038,4.60000,2470.18,2020-6-16T07:03:18Z
2020-06-16T05:05:37Z,42.805,6.029,13.3032,4.60000,2470.194,2020-6-16T07:06:21Z
2020-06-16T05:08:40Z,42.805,6.029,13.3020,4.60021,2470.18,2020-6-16T07:09:25Z
2020-06-16T05:11:43Z,42.805,6.029,13.3018,4.60014,2470.171,2020-6-16T07:12:28Z
2020-06-16T05:14:47Z,42.805,6.029,13.3058,4.60033,2470.203,2020-6-16T07:15:31Z
2020-06-16T05:17:50Z,42.805,6.029,13.3045,4.60007,2470.156,2020-6-16T07:18:34Z
2020-06-16T05:20:53Z,42.805,6.029,13.3020,4.60016,2470.194,2020-6-16T07:21:38Z
2020-06-16T05:23:57Z,42.805,6.029,13.3032,4.60019,2470.217,2020-6-16T07:24:41Z
2020-06-16T05:27:00Z,42.805,6.029,13.3036,4.60023,2470.194,2020-6-16T07:27:44Z
2020-06-16T05:30:03Z,42.805,6.029,13.3039,4.60005,2470.203,2020-6-16T07:30:47Z
2020-06-16T05:33:06Z,42.805,6.029,13.3046,4.60015,2470.18,2020-6-16T07:33:51Z
2020-06-16T05:36:10Z,42.805,6.029,13.3015,4.60021,2470.156,2020-6-16T07:36:54Z
2020-06-16T05:39:13Z,42.805,6.029,13.3029,4.60014,2470.194,2020-6-16T07:39:57Z
2020-06-16T05:42:16Z,42.805,6.029,13.3022,4.60021,2470.156,2020-6-16T07:43:00Z
2020-06-16T05:45:19Z,42.805,6.029,13.3031,4.60010,2470.171,2020-6-16T07:46:04Z
2020-06-16T05:48:22Z,42.805,6.029,13.3026,4.60006,2470.156,2020-6-16T07:49:07Z
2020-06-16T05:51:26Z,42.805,6.029,13.3036,4.60012,2470.194,2020-6-16T07:52:10Z
2020-06-16T05:54:29Z,42.805,6.029,13.3017,4.60014,2470.133,2020-6-16T07:55:13Z
2020-06-16T05:57:32Z,42.805,6.029,13.3032,4.60005,2470.194,2020-6-16T07:58:17Z
2020-06-16T06:00:35Z,42.805,6.029,13.3036,4.60011,2470.194,2020-6-16T08:01:20Z
2020-06-16T06:03:39Z,42.805,6.029,13.3034,4.60006,2470.156,2020-6-16T08:04:23Z
2020-06-16T06:06:42Z,42.805,6.029,13.3027,4.60006,2470.171,2020-6-16T08:07:26Z
2020-06-16T06:09:45Z,42.805,6.029,13.3026,4.60011,2470.18,2020-6-16T08:10:29Z
2020-06-16T06:12:48Z,42.805,6.029,13.3022,4.60014,2470.156,2020-6-16T08:13:33Z
2020-06-16T06:15:52Z,42.805,6.029,13.3025,4.60014,2470.171,2020-6-16T08:16:36Z
2020-06-16T06:18:55Z,42.805,6.029,13.3027,4.60008,2470.171,2020-6-16T08:19:39Z
2020-06-16T06:21:58Z,42.805,6.029,13.3024,4.60031,2470.156,2020-6-16T08:22:43Z
2020-06-16T06:25:01Z,42.805,6.029,13.3028,4.60010,2470.171,2020-6-16T08:25:46Z
2020-06-16T06:28:05Z,42.805,6.029,13.3033,4.60011,2470.18,2020-6-16T08:28:49Z
2020-06-16T06:31:08Z,42.805,6.029,13.3024,4.60007,2470.18,2020-6-16T08:31:52Z
2020-06-16T06:34:11Z,42.805,6.029,13.3034,4.60023,2470.133,2020-6-16T08:34:55Z
2020-06-16T06:37:14Z,42.805,6.029,13.2978,4.60019,2470.133,2020-6-16T08:37:59Z
2020-06-16T06:40:18Z,42.805,6.029,13.2985,4.60029,2470.171,2020-6-16T08:41:02Z
2020-06-16T06:43:21Z,42.805,6.029,13.2986,4.60049,2470.124,2020-6-16T08:44:05Z
2020-06-16T06:46:24Z,42.805,6.029,13.2976,4.60017,2470.156,2020-6-16T08:47:09Z
2020-06-16T06:49:28Z,42.805,6.029,13.2973,4.60026,2470.124,2020-6-16T08:50:12Z
2020-06-16T06:52:31Z,42.805,6.029,13.2966,4.60009,2470.133,2020-6-16T08:53:15Z
2020-06-16T06:55:34Z,42.805,6.029,13.2979,4.59991,2470.133,2020-6-16T08:56:18Z
2020-06-16T06:58:37Z,42.805,6.029,13.2965,4.60011,2470.133,2020-6-16T08:59:22Z
2020-06-16T07:01:40Z,42.805,6.029,13.2987,4.59999,2470.147,2020-6-16T09:02:25Z
2020-06-16T07:04:44Z,42.805,6.029,13.2975,4.59998,2470.133,2020-6-16T09:05:28Z
2020-06-16T07:07:47Z,42.805,6.029,13.2967,4.59998,2470.11,2020-6-16T09:08:31Z
2020-06-16T07:10:50Z,42.805,6.029,13.2976,4.60008,2470.124,2020-6-16T09:11:35Z
2020-06-16T07:13:54Z,42.805,6.029,13.2970,4.60006,2470.147,2020-6-16T09:14:38Z
2020-06-16T07:16:57Z,42.805,6.029,13.2971,4.60002,2470.147,2020-6-16T09:17:41Z
2020-06-16T07:20:00Z,42.805,6.029,13.3019,4.60016,2470.156,2020-6-16T09:20:44Z
2020-06-16T07:23:03Z,42.805,6.029,13.2981,4.60041,2470.171,2020-6-16T09:23:48Z
2020-06-16T07:26:06Z,42.805,6.029,13.2975,4.60049,2470.133,2020-6-16T09:26:51Z
2020-06-16T07:29:10Z,42.805,6.029,13.2968,4.60024,2470.11,2020-6-16T09:29:54Z
2020-06-16T07:32:13Z,42.805,6.029,13.2976,4.60051,2470.156,2020-6-16T09:32:57Z
2020-06-16T07:35:16Z,42.805,6.029,13.2979,4.60011,2470.11,2020-6-16T09:36:01Z
2020-06-16T07:38:19Z,42.805,6.029,13.3025,4.60033,2470.18,2020-6-16T09:39:04Z
2020-06-16T07:41:23Z,42.805,6.029,13.3000,4.60030,2470.133,2020-6-16T09:42:07Z
2020-06-16T07:44:26Z,42.805,6.029,13.2982,4.60023,2470.124,2020-6-16T09:45:10Z
2020-06-16T07:47:29Z,42.805,6.029,13.3010,4.60013,2470.11,2020-6-16T09:48:13Z
2020-06-16T07:50:32Z,42.805,6.029,13.3019,4.60025,2470.124,2020-6-16T09:51:17Z
2020-06-16T07:53:36Z,42.805,6.029,13.3014,4.60022,2470.147,2020-6-16T09:54:20Z
2020-06-16T07:56:39Z,42.805,6.029,13.2988,4.60014,2470.11,2020-6-16T09:57:24Z
2020-06-16T07:59:43Z,42.805,6.029,13.2982,4.60016,2470.147,2020-6-16T10:00:27Z
2020-06-16T08:02:46Z,42.805,6.029,13.2980,4.60024,2470.11,2020-6-16T10:03:30Z
2020-06-16T08:05:49Z,42.805,6.029,13.2968,4.60034,2470.11,2020-6-16T10:06:34Z
2020-06-16T08:08:52Z,42.805,6.029,13.2971,4.60033,2470.147,2020-6-16T10:09:37Z
2020-06-16T08:11:55Z,42.805,6.029,13.2971,4.60009,2470.124,2020-6-16T10:12:40Z
2020-06-16T08:14:59Z,42.805,6.029,13.2967,4.60008,2470.124,2020-6-16T10:15:43Z
2020-06-16T08:18:02Z,42.805,6.029,13.2970,4.59992,2470.11,2020-6-16T10:18:46Z
2020-06-16T08:21:05Z,42.805,6.029,13.2969,4.60001,2470.1,2020-6-16T10:21:50Z
2020-06-16T08:24:08Z,42.805,6.029,13.2968,4.60009,2470.124,2020-6-16T10:24:53Z
2020-06-16T08:27:12Z,42.805,6.029,13.2974,4.60008,2470.11,2020-6-16T10:27:56Z
2020-06-16T08:30:15Z,42.805,6.029,13.2971,4.60014,2470.124,2020-6-16T10:31:00Z
2020-06-16T08:33:18Z,42.805,6.029,13.2967,4.60024,2470.11,2020-6-16T10:34:03Z
2020-06-16T08:36:22Z,42.805,6.029,13.2968,4.60019,2470.133,2020-6-16T10:37:06Z
2020-06-16T08:39:25Z,42.805,6.029,13.2968,4.60009,2470.124,2020-6-16T10:40:09Z
2020-06-16T08:42:28Z,42.805,6.029,13.3039,4.60005,2470.11,2020-6-16T10:43:13Z
2020-06-16T08:45:31Z,42.805,6.029,13.2973,4.59999,2470.077,2020-6-16T10:46:16Z
2020-06-16T08:48:35Z,42.805,6.029,13.2969,4.60003,2470.1,2020-6-16T10:49:19Z
2020-06-16T08:51:38Z,42.805,6.029,13.2979,4.59991,2470.1,2020-6-16T10:52:22Z
2020-06-16T08:54:41Z,42.805,6.029,13.2971,4.60010,2470.1,2020-6-16T10:55:26Z
2020-06-16T08:57:44Z,42.805,6.029,13.2967,4.60013,2470.133,2020-6-16T10:58:29Z
2020-06-16T09:00:47Z,42.805,6.029,13.2977,4.60000,2470.063,2020-6-16T11:01:32Z
2020-06-16T09:03:51Z,42.805,6.029,13.2994,4.59999,2470.124,2020-6-16T11:04:35Z
2020-06-16T09:06:54Z,42.805,6.029,13.2972,4.60026,2470.124,2020-6-16T11:07:38Z
2020-06-16T09:09:57Z,42.805,6.029,13.2964,4.60021,2470.087,2020-6-16T11:10:42Z
2020-06-16T09:13:00Z,42.805,6.029,13.2968,4.59992,2470.1,2020-6-16T11:13:45Z
2020-06-16T09:16:04Z,42.805,6.029,13.2967,4.59999,2470.087,2020-6-16T11:16:48Z
2020-06-16T09:19:07Z,42.805,6.029,13.2975,4.60009,2470.077,2020-6-16T11:19:51Z
2020-06-16T09:22:10Z,42.805,6.029,13.2968,4.59999,2470.063,2020-6-16T11:22:55Z
2020-06-16T09:25:13Z,42.805,6.029,13.2967,4.59989,2470.073,2020-6-16T11:25:58Z
2020-06-16T09:28:17Z,42.805,6.029,13.2968,4.59988,2470.063,2020-6-16T11:29:01Z
2020-06-16T09:31:20Z,42.805,6.029,13.2969,4.59991,2470.11,2020-6-16T11:32:04Z
2020-06-16T09:34:23Z,42.805,6.029,13.2968,4.59993,2470.087,2020-6-16T11:35:08Z
2020-06-16T09:37:27Z,42.805,6.029,13.2966,4.59994,2470.053,2020-6-16T11:38:11Z
2020-06-16T09:40:30Z,42.805,6.029,13.2967,4.59994,2470.063,2020-6-16T11:41:14Z
2020-06-16T09:43:33Z,42.805,6.029,13.2967,4.59987,2470.087,2020-6-16T11:44:18Z
2020-06-16T09:46:37Z,42.805,6.029,13.2967,4.59991,2470.087,2020-6-16T11:47:21Z
2020-06-16T09:49:40Z,42.805,6.029,13.2971,4.59986,2470.063,2020-6-16T11:50:24Z
2020-06-16T09:52:43Z,42.805,6.029,13.2970,4.59986,2470.1,2020-6-16T11:53:27Z
2020-06-16T09:55:46Z,42.805,6.029,13.2969,4.59987,2470.077,2020-6-16T11:56:31Z
2020-06-16T09:58:49Z,42.805,6.029,13.2964,4.59988,2470.063,2020-6-16T11:59:34Z
2020-06-16T10:01:53Z,42.805,6.029,13.2969,4.59984,2470.063,2020-6-16T12:02:37Z
2020-06-16T10:04:56Z,42.805,6.029,13.2968,4.59982,2470.063,2020-6-16T12:05:41Z
2020-06-16T10:07:59Z,42.805,6.029,13.2968,4.59985,2470.04,2020-6-16T12:08:44Z
2020-06-16T10:11:03Z,42.805,6.029,13.2971,4.59990,2470.053,2020-6-16T12:11:47Z
2020-06-16T10:14:06Z,42.805,6.029,13.2966,4.59981,2470.063,2020-6-16T12:14:50Z
2020-06-16T10:17:09Z,42.805,6.029,13.2967,4.59986,2470.087,2020-6-16T12:17:54Z
2020-06-16T10:20:13Z,42.805,6.029,13.2967,4.59993,2470.087,2020-6-16T12:20:57Z
2020-06-16T10:23:16Z,42.805,6.029,13.2968,4.59986,2470.04,2020-6-16T12:24:00Z
2020-06-16T10:26:19Z,42.805,6.029,13.2974,4.59991,2470.087,2020-6-16T12:27:04Z
2020-06-16T10:29:22Z,42.805,6.029,13.2970,4.59986,2470.063,2020-6-16T12:30:07Z
2020-06-16T10:32:26Z,42.805,6.029,13.2969,4.59996,2470.063,2020-6-16T12:33:10Z
2020-06-16T10:35:29Z,42.805,6.029,13.2968,4.59988,2470.063,2020-6-16T12:36:13Z
2020-06-16T10:38:32Z,42.805,6.029,13.2971,4.59981,2470.04,2020-6-16T12:39:17Z
2020-06-16T10:41:36Z,42.805,6.029,13.2963,4.59983,2470.053,2020-6-16T12:42:20Z
2020-06-16T10:44:39Z,42.805,6.029,13.2969,4.59984,2470.04,2020-6-16T12:45:23Z
2020-06-16T10:47:42Z,42.805,6.029,13.2968,4.59986,2470.04,2020-6-16T12:48:26Z
2020-06-16T10:50:45Z,42.805,6.029,13.2966,4.59986,2470.063,2020-6-16T12:51:30Z
2020-06-16T10:53:48Z,42.805,6.029,13.2964,4.59990,2470.077,2020-6-16T12:54:33Z
2020-06-16T10:56:52Z,42.805,6.029,13.2965,4.59989,2470.053,2020-6-16T12:57:36Z
2020-06-16T10:59:55Z,42.805,6.029,13.2965,4.59981,2470.063,2020-6-16T13:00:39Z
2020-06-16T11:02:58Z,42.805,6.029,13.2971,4.59984,2470.1,2020-6-16T13:03:43Z
2020-06-16T11:06:01Z,42.805,6.029,13.2969,4.59989,2470.04,2020-6-16T13:06:46Z
2020-06-16T11:09:05Z,42.805,6.029,13.2967,4.59988,2470.077,2020-6-16T13:09:49Z
2020-06-16T11:12:08Z,42.805,6.029,13.2967,4.59980,2470.063,2020-6-16T13:12:53Z
2020-06-16T11:15:11Z,42.805,6.029,13.2968,4.59981,2470.053,2020-6-16T13:15:56Z
2020-06-16T11:18:15Z,42.805,6.029,13.2964,4.59980,2470.077,2020-6-16T13:18:59Z
2020-06-16T11:21:18Z,42.805,6.029,13.2968,4.59986,2470.063,2020-6-16T13:22:02Z
2020-06-16T11:24:21Z,42.805,6.029,13.2968,4.59983,2470.063,2020-6-16T13:25:05Z
2020-06-16T11:27:24Z,42.805,6.029,13.2965,4.59984,2470.063,2020-6-16T13:28:09Z
2020-06-16T11:30:27Z,42.805,6.029,13.2964,4.59980,2470.063,2020-6-16T13:31:12Z
2020-06-16T11:33:31Z,42.805,6.029,13.2966,4.59979,2470.063,2020-6-16T13:34:15Z
2020-06-16T11:36:34Z,42.805,6.029,13.2970,4.59982,2470.077,2020-6-16T13:37:18Z
2020-06-16T11:39:37Z,42.805,6.029,13.2965,4.59979,2470.04,2020-6-16T13:40:22Z
2020-06-16T11:42:40Z,42.805,6.029,13.2964,4.59981,2470.077,2020-6-16T13:43:25Z
2020-06-16T11:45:44Z,42.805,6.029,13.2968,4.59987,2470.04,2020-6-16T13:46:28Z
2020-06-16T11:48:47Z,42.805,6.029,13.2967,4.59982,2470.063,2020-6-16T13:49:31Z
2020-06-16T11:51:50Z,42.805,6.029,13.2969,4.59985,2470.063,2020-6-16T13:52:35Z
2020-06-16T11:54:53Z,42.805,6.029,13.2968,4.59988,2470.077,2020-6-16T13:55:38Z
2020-06-16T11:57:57Z,42.805,6.029,13.2969,4.59986,2470.04,2020-6-16T13:58:41Z
2020-06-16T12:01:00Z,42.805,6.029,13.2971,4.59991,2470.063,2020-6-16T14:01:45Z
2020-06-16T12:04:03Z,42.805,6.029,13.2967,4.59990,2470.087,2020-6-16T14:04:48Z
2020-06-16T12:07:07Z,42.805,6.029,13.2967,4.59990,2470.063,2020-6-16T14:07:51Z
2020-06-16T12:10:10Z,42.805,6.029,13.2973,4.59983,2470.063,2020-6-16T14:10:54Z
2020-06-16T12:13:13Z,42.805,6.029,13.2968,4.59989,2470.087,2020-6-16T14:13:58Z
2020-06-16T12:16:16Z,42.805,6.029,13.2967,4.60009,2470.063,2020-6-16T14:17:01Z
2020-06-16T12:19:19Z,42.805,6.029,13.2967,4.60001,2470.087,2020-6-16T14:20:04Z
2020-06-16T12:22:23Z,42.805,6.029,13.2969,4.59986,2470.087,2020-6-16T14:23:07Z
2020-06-16T12:25:26Z,42.805,6.029,13.2967,4.59984,2470.063,2020-6-16T14:26:10Z
2020-06-16T12:28:29Z,42.805,6.029,13.2967,4.59988,2470.1,2020-6-16T14:29:14Z
2020-06-16T12:31:32Z,42.805,6.029,13.2968,4.59985,2470.04,2020-6-16T14:32:17Z
2020-06-16T12:34:36Z,42.805,6.029,13.2971,4.59992,2470.063,2020-6-16T14:35:20Z
2020-06-16T12:37:39Z,42.805,6.029,13.2967,4.59990,2470.087,2020-6-16T14:38:23Z
2020-06-16T12:40:42Z,42.805,6.029,13.2969,4.59993,2470.087,2020-6-16T14:41:27Z
2020-06-16T12:43:45Z,42.805,6.029,13.2965,4.59986,2470.087,2020-6-16T14:44:30Z
2020-06-16T12:46:49Z,42.805,6.029,13.2969,4.59989,2470.11,2020-6-16T14:47:33Z
2020-06-16T12:49:52Z,42.805,6.029,13.2967,4.59987,2470.124,2020-6-16T14:50:36Z
2020-06-16T12:52:55Z,42.805,6.029,13.2968,4.59981,2470.124,2020-6-16T14:53:40Z
2020-06-16T12:55:59Z,42.805,6.029,13.2967,4.59978,2470.063,2020-6-16T14:56:43Z
2020-06-16T12:59:02Z,42.805,6.029,13.2966,4.59984,2470.124,2020-6-16T14:59:46Z
2020-06-16T13:02:05Z,42.805,6.029,13.2967,4.59978,2470.087,2020-6-16T15:02:49Z
2020-06-16T13:05:08Z,42.805,6.029,13.2968,4.59981,2470.11,2020-6-16T15:05:53Z
2020-06-16T13:08:11Z,42.805,6.029,13.2967,4.59991,2470.124,2020-6-16T15:08:56Z
2020-06-16T13:11:15Z,42.805,6.029,13.2967,4.59994,2470.11,2020-6-16T15:11:59Z
2020-06-16T13:14:18Z,42.805,6.029,13.2965,4.59989,2470.11,2020-6-16T15:15:02Z
2020-06-16T13:17:21Z,42.805,6.029,13.2967,4.59984,2470.124,2020-6-16T15:18:06Z
2020-06-16T13:20:24Z,42.805,6.029,13.2970,4.59988,2470.087,2020-6-16T15:21:09Z
2020-06-16T13:23:28Z,42.805,6.029,13.2967,4.59986,2470.11,2020-6-16T15:24:12Z
2020-06-16T13:26:31Z,42.805,6.029,13.2966,4.59985,2470.1,2020-6-16T15:27:15Z
2020-06-16T13:29:34Z,42.805,6.029,13.2968,4.59989,2470.124,2020-6-16T15:30:19Z
2020-06-16T13:32:37Z,42.805,6.029,13.2964,4.59990,2470.11,2020-6-16T15:33:22Z
2020-06-16T13:35:41Z,42.805,6.029,13.2968,4.59995,2470.124,2020-6-16T15:36:25Z
2020-06-16T13:38:44Z,42.805,6.029,13.2965,4.59996,2470.11,2020-6-16T15:39:28Z
2020-06-16T13:41:47Z,42.805,6.029,13.2967,4.59996,2470.133,2020-6-16T15:42:32Z
2020-06-16T13:44:51Z,42.805,6.029,13.2966,4.59994,2470.11,2020-6-16T15:45:35Z
2020-06-16T13:47:54Z,42.805,6.029,13.2969,4.59998,2470.077,2020-6-16T15:48:38Z
2020-06-16T13:50:57Z,42.805,6.029,13.2967,4.60003,2470.087,2020-6-16T15:51:41Z
2020-06-16T13:54:00Z,42.805,6.029,13.2965,4.59984,2470.147,2020-6-16T15:54:45Z
2020-06-16T13:57:03Z,42.805,6.029,13.2964,4.59993,2470.133,2020-6-16T15:57:48Z
2020-06-16T14:00:07Z,42.805,6.029,13.2964,4.59994,2470.11,2020-6-16T16:00:51Z
2020-06-16T14:03:10Z,42.805,6.029,13.2971,4.59990,2470.147,2020-6-16T16:03:54Z
2020-06-16T14:06:13Z,42.805,6.029,13.2970,4.59996,2470.124,2020-6-16T16:06:58Z
2020-06-16T14:09:16Z,42.805,6.029,13.2966,4.60000,2470.133,2020-6-16T16:10:01Z
2020-06-16T14:12:20Z,42.805,6.029,13.2971,4.60001,2470.11,2020-6-16T16:13:04Z
2020-06-16T14:15:23Z,42.805,6.029,13.2967,4.59999,2470.119,2020-6-16T16:16:07Z
2020-06-16T14:18:26Z,42.805,6.029,13.2968,4.59999,2470.171,2020-6-16T16:19:11Z
2020-06-16T14:21:30Z,42.805,6.029,13.2971,4.59999,2470.11,2020-6-16T16:22:14Z
2020-06-16T14:24:33Z,42.805,6.029,13.2970,4.59989,2470.133,2020-6-16T16:25:17Z
2020-06-16T14:27:37Z,42.805,6.029,13.2968,4.59991,2470.11,2020-6-16T16:28:21Z
2020-06-16T14:30:40Z,42.805,6.029,13.2966,4.59987,2470.11,2020-6-16T16:31:24Z
2020-06-16T14:33:43Z,42.805,6.029,13.2967,4.59985,2470.147,2020-6-16T16:34:28Z
2020-06-16T14:36:46Z,42.805,6.029,13.2965,4.59984,2470.156,2020-6-16T16:37:31Z
2020-06-16T14:39:50Z,42.805,6.029,13.2967,4.59983,2470.156,2020-6-16T16:40:34Z
2020-06-16T14:42:53Z,42.805,6.029,13.2968,4.59988,2470.147,2020-6-16T16:43:37Z
2020-06-16T14:45:56Z,42.805,6.029,13.2970,4.59986,2470.156,2020-6-16T16:46:41Z
2020-06-16T14:49:00Z,42.805,6.029,13.2973,4.59986,2470.133,2020-6-16T16:49:44Z
2020-06-16T14:52:03Z,42.805,6.029,13.2965,4.59994,2470.171,2020-6-16T16:52:47Z
2020-06-16T14:55:06Z,42.805,6.029,13.2967,4.59991,2470.133,2020-6-16T16:55:51Z
2020-06-16T14:58:09Z,42.805,6.029,13.2969,4.59989,2470.156,2020-6-16T16:58:54Z
2020-06-16T15:01:13Z,42.805,6.029,13.2967,4.59989,2470.171,2020-6-16T17:01:57Z
2020-06-16T15:04:16Z,42.805,6.029,13.2968,4.59993,2470.156,2020-6-16T17:05:00Z
2020-06-16T15:07:19Z,42.805,6.029,13.2970,4.59990,2470.156,2020-6-16T17:08:04Z
2020-06-16T15:10:22Z,42.805,6.029,13.2968,4.59994,2470.18,2020-6-16T17:11:07Z